Theta_e
308 308 308 308 308 308 309 309 309 310 310 311 312 312 313 314 314 315 314 313 313 311 312 312 312 314 315 314 314 314 307 310 311 311 314 315 314 314 314 314 314 316 316 315 320
308 308 308 308 308 308 309 309 309 310 310 311 312 312 313 315 316 316 316 315 314 312 311 313 313 316 316 316 315 312 307 311 312 311 313 314 315 315 315 313 313 314 315 315 318
309 309 309 309 309 309 308 309 309 309 310 311 311 312 313 315 318 317 313 313 314 313 312 314 314 315 315 316 315 311 310 311 315 316 315 314 314 315 313 311 314 315 315 316 318
309 309 309 309 309 309 309 309 309 309 309 310 311 312 313 316 315 315 311 311 312 312 312 313 314 314 313 314 315 312 313 313 315 316 314 314 315 314 314 315 316 315 315 315 315
310 310 310 310 310 309 309 309 309 309 309 309 310 311 313 315 316 318 316 311 311 311 312 313 314 314 313 315 315 313 313 314 316 316 316 316 315 314 314 315 316 315 314 314 314
310 310 310 310 310 310 309 309 309 309 309 309 309 310 312 314 316 318 318 313 311 313 314 314 314 315 314 314 313 315 315 315 315 315 315 315 315 315 316 316 316 315 314 313 313
310 310 310 310 310 310 310 309 309 309 309 309 309 309 310 311 314 317 317 316 312 313 314 314 314 314 315 314 314 314 313 311 312 314 314 314 313 312 315 315 315 314 313 313 313
310 307 307 308 309 309 309 309 309 309 309 309 309 309 310 311 313 316 317 316 315 313 313 313 313 315 315 314 313 313 310 313 312 312 314 313 311 310 314 314 314 313 313 313 313
321 316 310 308 308 307 308 308 308 308 309 309 309 309 310 311 312 315 316 317 316 314 314 314 313 313 314 309 310 309 312 312 312 312 311 310 311 311 312 311 312 313 313 313 313
324 324 321 316 310 309 311 312 312 310 308 309 309 310 310 312 313 314 316 316 314 313 313 313 313 309 306 309 312 312 312 311 313 312 310 311 309 308 311 310 312 312 312 312 313
321 321 324 323 322 322 322 319 316 314 310 309 310 309 311 312 315 316 316 315 314 312 311 312 310 311 311 308 311 311 311 313 312 312 312 310 310 310 311 310 309 311 312 312 313
323 323 322 322 322 322 322 320 316 316 312 311 312 310 311 314 315 316 316 314 313 312 310 310 310 310 310 310 311 312 313 311 310 310 310 311 310 309 308 309 312 313 313 314 314
318 322 323 323 323 323 322 320 314 312 313 311 310 310 311 312 314 315 315 314 312 310 310 311 313 311 311 311 312 311 311 311 313 312 310 310 309 310 310 310 312 312 314 314 315
315 317 321 322 319 320 322 320 318 311 305 306 310 311 311 312 314 315 315 315 311 312 310 311 312 312 311 312 311 312 310 311 312 314 314 311 314 312 310 310 308 313 313 316 315
313 315 320 321 319 320 320 320 315 309 313 309 311 312 313 313 311 313 314 314 311 311 311 312 311 312 313 312 311 313 311 311 312 311 312 312 312 313 311 311 312 312 316 317 316
310 314 317 318 318 319 319 314 312 314 315 311 314 313 312 313 310 310 312 312 312 311 311 310 311 311 312 311 311 310 311 310 309 310 313 314 313 312 312 313 312 313 316 316 316
308 309 314 317 317 317 316 314 311 315 313 316 314 312 313 312 310 310 310 310 312 313 312 311 311 310 311 312 311 312 313 314 313 312 316 311 311 315 312 310 311 313 316 316 316
306 307 308 313 316 317 317 313 314 313 313 312 313 312 314 312 311 309 310 312 310 311 310 312 312 311 309 313 313 312 312 314 314 313 312 311 314 314 309 312 314 315 315 315 314
305 305 306 308 313 316 315 317 317 313 312 315 314 316 315 313 312 309 309 311 311 309 312 312 312 310 309 311 313 311 313 312 314 298 308 313 311 311 309 309 310 313 314 313 314
304 304 304 305 307 314 315 318 316 312 312 314 317 315 316 314 313 310 309 309 311 310 310 312 313 310 310 312 310 311 311 314 311 312 311 313 313 315 314 312 312 310 314 313 314
302 304 304 304 306 312 315 315 314 312 313 314 316 316 314 314 313 310 312 310 309 309 311 311 313 311 309 310 311 311 312 311 311 311 313 312 315 310 314 311 311 310 315 316 315
301 304 303 307 309 308 311 313 315 313 313 314 314 316 314 314 313 312 312 311 311 310 311 310 313 310 310 309 307 310 312 311 311 311 309 311 317 310 310 310 310 313 316 315 315
300 300 303 307 307 307 307 309 311 315 315 314 315 314 313 315 317 313 311 310 311 311 311 311 313 308 311 311 307 309 310 311 310 306 313 313 318 306 307 307 311 313 314 315 316
299 299 301 301 307 307 307 308 309 312 313 314 315 314 315 315 315 315 313 311 311 311 312 313 314 312 316 315 311 310 310 310 313 314 315 316 317 314 310 308 309 313 314 314 315
298 298 301 302 302 305 309 308 308 309 312 314 315 315 315 317 317 316 314 313 311 312 312 314 315 314 314 313 311 310 310 311 313 314 315 316 316 316 313 309 312 316 315 313 314
297 297 299 301 302 302 303 307 307 308 310 311 314 314 315 316 316 317 316 315 315 311 311 312 314 315 316 315 312 312 310 311 312 314 314 315 315 314 314 314 311 314 315 314 313
298 298 300 299 299 301 303 304 303 304 306 308 310 311 313 314 314 315 315 315 315 315 311 313 314 315 318 315 314 315 315 314 311 312 313 315 315 313 314 312 313 314 313 313 315
Wind_Speed
7 6 6 5 4 3 2 1 1 1 1 1 3 2 2 2 3 3 3 4 4 5 5 5 4 4 4 4 4 3 5 3 7 7 4 10 4 8 7 12 8 10 6 6 25
5 5 4 4 3 2 2 2 2 2 2 2 3 3 3 3 3 3 4 4 5 6 5 5 4 4 3 3 3 4 4 9 6 5 4 8 7 13 7 8 5 9 11 14 25
5 4 3 2 2 2 2 2 3 3 3 4 4 4 4 3 3 2 2 4 6 7 6 5 5 4 3 3 1 3 5 5 3 3 6 8 5 8 10 4 12 18 18 22 26
8 6 4 4 3 3 2 3 4 4 5 5 5 5 5 2 3 2 2 2 5 7 7 7 5 3 3 3 1 3 1 3 3 2 5 6 6 6 14 7 10 12 18 23 26
9 8 7 6 5 5 5 4 5 6 6 6 6 6 4 3 2 3 1 2 5 7 7 6 5 4 4 3 2 2 2 2 3 4 4 5 6 6 13 14 9 14 21 23 24
11 11 9 8 8 7 8 8 7 7 8 8 7 7 5 4 3 5 4 4 5 7 7 6 4 4 5 2 2 1 2 2 4 5 4 5 3 4 10 14 13 17 23 23 24
13 12 12 11 10 10 9 9 10 10 9 9 9 8 8 7 5 6 6 6 7 6 6 5 5 3 5 3 2 1 3 5 6 6 3 5 5 10 14 16 17 20 23 23 24
9 11 12 12 11 10 10 10 11 12 11 11 10 9 7 7 10 10 8 6 7 7 6 5 3 4 3 6 4 3 4 3 2 6 2 7 8 8 21 20 24 24 25 26 26
6 7 8 10 10 10 8 9 11 12 14 12 11 7 7 8 13 13 13 9 9 8 7 5 6 3 4 5 4 6 3 4 7 9 3 4 6 2 7 20 25 29 29 29 29
8 6 5 5 4 4 5 7 10 13 15 14 14 6 12 5 8 13 13 10 7 9 6 5 3 3 3 3 5 6 4 4 5 3 3 4 11 10 7 16 29 29 31 32 33
21 18 13 9 7 7 10 11 8 5 6 10 3 6 5 7 8 10 14 13 9 7 5 2 3 8 13 9 3 5 4 5 4 3 4 7 10 13 17 19 23 27 31 36 38
20 19 21 22 22 23 17 10 9 8 9 14 20 22 15 7 7 14 17 11 7 5 6 4 7 10 5 4 4 2 3 6 5 4 6 8 12 12 6 14 31 35 36 40 40
17 23 17 18 21 21 16 12 9 8 6 9 22 24 27 22 12 17 24 12 5 6 8 8 5 5 8 5 5 5 7 5 8 3 3 5 8 9 11 21 31 35 39 41 45
17 17 20 15 17 19 16 10 10 5 3 6 7 10 24 20 9 22 28 11 5 12 7 7 4 5 5 6 9 7 9 6 5 2 4 2 7 5 5 10 10 34 39 48 49
15 14 15 20 15 14 10 10 10 8 4 2 4 3 9 15 10 15 31 16 8 8 7 9 8 7 7 7 9 7 5 7 3 3 2 5 3 4 1 8 15 23 41 45 42
13 13 14 15 26 15 14 19 18 4 9 4 3 3 6 3 2 6 16 7 4 5 3 5 2 7 7 2 7 7 6 6 4 3 3 9 8 5 6 9 6 22 39 38 33
13 14 17 18 27 19 22 24 4 5 3 4 4 5 4 4 1 3 6 9 10 6 11 2 5 3 4 5 3 4 6 2 3 1 9 3 5 18 6 10 12 16 33 26 18
16 17 17 23 25 22 23 2 4 7 8 3 1 3 7 7 3 5 6 9 10 1 3 10 9 11 7 9 8 8 9 6 8 4 5 1 7 6 10 20 26 29 33 29 23
16 18 23 22 24 24 25 10 9 8 6 8 2 3 4 3 6 5 5 6 9 13 11 6 7 1 2 4 10 6 8 5 2 2 2 5 8 8 11 12 15 28 26 26 21
14 16 29 22 16 27 10 15 8 9 6 6 13 10 9 6 8 8 9 6 6 15 5 5 4 0 1 4 2 6 8 2 1 3 5 5 6 7 7 10 15 11 25 22 17
11 7 11 14 19 16 13 7 9 10 11 9 15 10 8 8 10 6 6 3 6 6 24 3 4 2 3 7 11 3 5 3 4 5 5 3 8 8 14 10 10 12 20 20 19
13 4 8 17 13 8 14 14 7 10 22 6 3 10 10 10 7 8 12 10 14 9 12 9 4 5 9 2 2 4 4 7 5 5 4 2 15 4 8 8 11 17 14 10 12
8 18 14 17 8 13 10 15 22 7 9 9 8 8 8 7 6 7 7 11 11 11 11 8 4 2 6 2 4 4 5 7 4 3 12 5 16 3 0 4 11 14 11 8 8
6 3 17 23 21 11 16 18 15 20 24 16 8 15 8 12 11 6 9 5 23 18 18 11 4 9 16 3 6 7 8 11 16 8 14 17 24 4 6 8 8 17 14 13 10
13 6 7 3 14 13 11 7 20 14 17 29 15 22 15 12 18 15 11 2 6 13 7 10 8 6 16 10 5 7 9 16 20 32 10 34 19 26 14 10 18 23 22 19 17
11 5 8 9 13 9 20 18 16 9 9 19 14 11 18 13 11 9 17 13 16 5 11 9 6 11 26 23 10 13 9 22 28 29 24 32 28 3 10 14 14 30 33 32 28
14 19 5 11 7 7 13 18 25 23 15 24 15 7 19 19 28 30 19 14 10 15 9 11 7 6 16 8 11 7 31 21 12 20 23 23 39 8 18 16 27 33 30 31 32
Wind_Direction
165 161 163 165 172 183 201 216 219 233 245 312 294 302 283 287 259 216 201 185 188 181 171 157 144 121 111 86 87 112 68 151 192 159 232 168 146 159 169 153 178 193 202 207 185
175 175 175 170 173 180 224 258 277 294 301 281 295 304 306 301 263 209 208 224 199 186 179 167 150 131 87 79 51 79 103 199 189 197 223 183 175 160 160 161 196 191 197 184 187
188 198 207 208 198 210 232 270 292 296 293 295 304 310 316 309 202 221 203 203 201 189 179 172 148 123 88 85 65 125 167 192 205 232 231 174 185 174 158 226 204 199 187 181 189
195 209 227 244 257 260 270 292 297 300 304 306 306 309 307 284 186 138 104 158 178 179 178 170 157 113 88 102 71 97 144 162 189 205 177 172 171 194 199 216 224 213 202 194 198
222 222 230 248 262 281 290 293 302 307 307 308 307 307 298 255 217 190 142 115 151 163 166 161 142 122 131 142 116 101 184 182 194 226 215 192 205 217 227 234 226 209 201 205 207
230 235 242 250 262 274 287 296 299 302 304 305 305 305 298 270 213 209 202 174 154 156 161 159 145 119 109 108 116 136 158 240 224 222 227 196 219 208 230 230 218 206 205 207 212
240 237 241 246 257 268 277 288 295 299 300 299 303 304 285 259 235 218 209 194 191 186 184 165 142 147 141 101 101 46 328 338 232 209 229 194 286 239 234 217 210 200 205 210 214
253 244 242 246 249 260 275 286 292 297 298 297 297 300 268 255 231 213 198 203 206 205 203 195 168 140 110 126 35 54 48 10 320 159 236 157 261 261 232 214 212 213 214 218 222
238 262 260 248 255 261 268 288 296 298 294 292 293 290 267 250 233 221 220 223 215 203 193 186 170 123 126 93 19 6 238 210 314 200 130 176 265 274 218 215 224 222 224 227 230
232 231 263 257 232 263 306 315 310 302 286 283 267 282 245 244 230 219 213 203 197 187 166 170 123 77 41 102 218 202 215 236 235 207 174 228 262 268 257 222 233 234 232 234 236
247 248 249 246 241 263 300 308 314 296 241 225 231 222 283 233 212 200 197 185 172 167 157 123 118 207 205 200 147 147 186 214 238 226 174 227 253 261 242 233 241 241 238 238 240
241 245 254 260 258 265 282 273 257 267 285 250 250 249 250 230 216 198 185 176 172 170 120 48 234 228 154 182 194 166 211 252 280 247 184 263 255 258 214 232 235 240 240 241 243
248 237 240 249 257 253 257 252 252 264 269 259 244 241 234 230 219 208 188 188 154 140 190 177 216 159 159 163 178 226 200 218 226 348 243 327 279 241 250 236 251 251 253 254 251
251 244 235 257 242 246 247 241 247 250 296 264 217 234 214 210 239 222 197 180 186 191 174 237 236 150 172 198 161 235 205 192 218 124 244 151 284 262 247 255 234 252 252 255 253
256 249 235 246 235 220 239 245 208 144 271 236 184 196 188 179 145 188 190 199 175 177 145 230 182 175 192 200 171 226 137 171 155 166 18 207 262 250 36 260 255 252 254 257 257
247 244 232 247 229 231 218 164 147 95 238 315 139 146 125 206 85 123 178 181 174 142 278 233 202 173 202 98 156 145 80 57 59 104 255 224 189 216 197 223 241 249 256 262 266
241 238 227 229 226 212 177 156 107 184 325 231 187 170 144 156 112 138 164 187 177 153 225 143 221 189 159 102 70 126 96 309 323 19 242 46 177 253 281 254 230 253 266 277 274
245 241 234 226 223 230 196 195 245 190 210 48 37 105 172 152 191 166 138 209 243 163 115 198 253 169 188 191 166 189 165 173 210 205 269 86 232 249 228 249 252 259 266 273 273
260 252 248 232 224 216 183 224 201 198 209 157 88 153 224 168 155 137 215 240 204 192 197 174 254 238 127 147 157 191 208 201 23 110 359 226 280 286 256 266 269 258 264 264 269
278 272 254 241 229 215 217 218 221 183 169 170 209 168 203 187 161 181 174 217 228 200 208 222 274 4 201 119 35 172 157 82 9 233 251 266 262 225 247 242 249 267 262 266 267
260 271 274 249 221 212 244 202 224 230 196 184 215 196 207 180 186 193 219 247 210 210 194 164 183 268 130 210 171 148 203 188 145 166 195 285 252 217 216 207 221 243 258 275 277
237 242 222 190 189 212 227 224 224 201 222 261 243 199 197 178 189 190 213 201 203 149 180 209 191 204 201 253 210 207 237 160 148 228 246 179 260 180 205 206 213 249 260 273 293
232 243 242 210 214 220 230 233 238 256 206 198 245 218 196 181 213 211 210 213 187 167 174 171 218 325 328 25 353 212 194 197 109 76 233 159 262 19 148 268 227 236 256 269 272
218 247 224 243 249 228 227 240 239 229 235 233 247 218 207 215 210 202 224 248 199 201 199 176 192 201 233 198 147 193 194 200 203 220 235 235 253 262 270 251 265 253 255 260 258
200 221 222 207 232 238 244 246 235 239 228 207 225 243 213 231 225 229 223 253 196 222 197 148 234 244 258 258 206 196 196 198 209 228 201 252 244 251 233 223 239 260 269 254 242
191 196 210 250 281 241 241 243 249 262 230 225 234 233 230 231 223 229 223 207 226 191 176 165 236 228 257 249 238 245 220 217 215 230 234 255 263 114 263 251 251 252 256 258 252
249 218 238 232 229 243 245 237 244 252 243 246 268 284 243 237 247 239 228 235 218 215 185 157 190 185 253 242 225 251 239 230 217 226 217 238 248 223 260 242 248 256 255 254 258